Total_Precipitation_Accumulation
0.00 0.00 0.00 0.00 0.00 0.00 0.01 0.03 0.05 0.09 0.15 0.16 0.19 0.23 0.25 0.25 0.45 0.97 0.66 0.34 0.24 0.08 0.06 0.05 0.04 0.03 0.04 0.05 0.07 0.07 0.08 0.09 0.08 0.07 0.06 0.06 0.07 0.07 0.07 0.07 0.08 0.12 0.14 0.13 0.12 0.12 0.11 0.09 0.07
0.00 0.00 0.00 0.00 0.00 0.00 0.01 0.02 0.06 0.08 0.11 0.13 0.16 0.18 0.19 0.26 0.29 0.26 0.29 0.24 0.17 0.08 0.05 0.04 0.04 0.03 0.04 0.04 0.05 0.07 0.08 0.08 0.07 0.06 0.06 0.06 0.06 0.07 0.08 0.09 0.11 0.15 0.18 0.17 0.13 0.10 0.08 0.06 0.05
0.00 0.00 0.00 0.00 0.00 0.00 0.02 0.04 0.06 0.08 0.12 0.15 0.19 0.31 0.35 0.31 0.30 0.21 0.18 0.15 0.11 0.06 0.04 0.05 0.04 0.04 0.04 0.04 0.04 0.06 0.07 0.07 0.07 0.06 0.06 0.07 0.07 0.07 0.10 0.14 0.17 0.19 0.19 0.21 0.18 0.13 0.09 0.06 0.05
0.00 0.00 0.00 0.00 0.00 0.00 0.02 0.05 0.07 0.08 0.09 0.11 0.16 0.37 0.50 0.29 0.32 0.22 0.15 0.12 0.09 0.07 0.04 0.04 0.05 0.05 0.05 0.04 0.05 0.07 0.08 0.08 0.08 0.08 0.09 0.09 0.09 0.10 0.14 0.21 0.27 0.25 0.23 0.26 0.25 0.21 0.14 0.08 0.06
0.00 0.00 0.00 0.00 0.00 0.00 0.01 0.03 0.07 0.05 0.06 0.09 0.12 0.33 0.55 0.45 0.34 0.23 0.17 0.13 0.10 0.09 0.05 0.05 0.08 0.09 0.08 0.06 0.07 0.09 0.10 0.12 0.14 0.14 0.13 0.14 0.14 0.16 0.20 0.28 0.29 0.29 0.28 0.28 0.24 0.18 0.11 0.09 0.10
0.00 0.00 0.00 0.00 0.00 0.01 0.01 0.02 0.04 0.05 0.05 0.09 0.13 0.30 0.68 0.71 0.46 0.29 0.26 0.24 0.16 0.12 0.07 0.07 0.10 0.11 0.11 0.11 0.11 0.13 0.15 0.16 0.17 0.17 0.17 0.14 0.14 0.17 0.23 0.27 0.29 0.29 0.26 0.22 0.17 0.14 0.12 0.12 0.13
0.00 0.00 0.00 0.00 0.00 0.01 0.02 0.03 0.03 0.05 0.07 0.10 0.18 0.39 0.71 0.69 0.49 0.41 0.41 0.34 0.24 0.19 0.18 0.16 0.17 0.15 0.17 0.21 0.23 0.23 0.22 0.22 0.20 0.18 0.16 0.14 0.15 0.18 0.22 0.26 0.31 0.31 0.22 0.17 0.15 0.13 0.12 0.11 0.11
0.00 0.00 0.00 0.00 0.00 0.01 0.02 0.04 0.05 0.07 0.13 0.15 0.20 0.40 0.82 0.92 0.70 0.66 0.65 0.59 0.49 0.43 0.43 0.41 0.35 0.29 0.25 0.26 0.30 0.31 0.32 0.30 0.25 0.20 0.16 0.18 0.21 0.23 0.26 0.24 0.26 0.25 0.20 0.16 0.14 0.12 0.10 0.09 0.08
0.00 0.00 0.00 0.00 0.00 0.01 0.02 0.04 0.06 0.07 0.11 0.20 0.26 0.41 0.75 0.93 0.87 0.84 0.84 0.79 0.85 0.88 0.88 0.76 0.65 0.51 0.47 0.44 0.37 0.41 0.41 0.39 0.33 0.28 0.25 0.27 0.30 0.33 0.36 0.31 0.34 0.28 0.23 0.19 0.17 0.15 0.13 0.12 0.10
0.00 0.00 0.00 0.00 0.00 0.01 0.01 0.03 0.05 0.08 0.12 0.26 0.36 0.43 0.63 0.81 1.07 1.14 1.04 0.98 1.07 1.27 1.13 0.92 0.90 0.83 0.76 0.61 0.56 0.56 0.48 0.44 0.39 0.44 0.39 0.43 0.61 0.68 0.62 0.60 0.49 0.44 0.39 0.32 0.29 0.26 0.20 0.14 0.14
0.00 0.00 0.00 0.00 0.00 0.00 0.00 0.02 0.03 0.09 0.24 0.46 0.61 0.66 0.80 1.00 1.19 1.33 1.31 1.24 1.34 1.35 1.13 1.02 1.10 1.09 1.08 1.04 1.02 0.89 0.81 0.74 0.63 0.69 0.67 0.72 0.75 0.72 0.77 0.78 0.68 0.63 0.59 0.54 0.51 0.38 0.28 0.25 0.26
0.00 0.00 0.00 0.00 0.00 0.00 0.00 0.01 0.03 0.08 0.23 0.48 0.67 0.91 1.13 1.31 1.36 1.51 1.62 1.58 1.70 1.64 1.34 1.12 1.09 1.17 1.32 1.33 1.31 1.29 1.24 1.16 1.04 0.94 0.88 0.96 1.03 1.04 0.99 1.10 1.08 1.06 0.98 0.90 0.80 0.66 0.54 0.46 0.45
0.00 0.00 0.00 0.00 0.00 0.00 0.01 0.02 0.03 0.08 0.23 0.35 0.52 0.70 0.83 0.98 1.33 1.79 1.81 1.84 2.00 2.05 1.82 1.52 1.44 1.40 1.41 1.53 1.52 1.30 1.33 1.35 1.41 1.32 1.20 1.26 1.22 1.25 1.38 1.38 1.48 1.40 1.43 1.33 1.17 0.97 0.88 0.77 0.68
0.00 0.00 0.00 0.00 0.00 0.01 0.01 0.03 0.05 0.12 0.24 0.29 0.35 0.47 0.72 0.80 1.05 1.47 1.77 1.93 2.12 2.21 2.11 1.87 1.65 1.62 1.58 1.72 1.80 1.62 1.54 1.56 1.56 1.57 1.45 1.50 1.50 1.53 1.59 1.63 1.69 1.59 1.59 1.62 1.48 1.26 1.13 1.04 0.93
0.00 0.00 0.00 0.00 0.00 0.01 0.01 0.04 0.07 0.10 0.22 0.35 0.35 0.42 0.69 0.96 1.09 1.52 1.86 2.00 2.29 2.28 2.13 2.13 1.98 2.05 2.06 2.15 2.12 2.13 2.09 2.09 2.00 1.87 1.86 1.80 1.79 1.82 1.77 1.92 2.01 1.86 1.80 1.81 1.70 1.60 1.36 1.32 1.30
0.00 0.00 0.00 0.00 0.01 0.00 0.01 0.10 0.15 0.15 0.19 0.30 0.37 0.47 0.70 0.93 1.17 1.48 1.83 1.93 2.16 2.12 2.17 2.27 2.15 2.19 2.31 2.26 2.15 2.20 2.41 2.42 2.33 2.23 2.25 2.12 2.10 2.14 2.21 2.16 2.11 2.05 2.01 2.00 2.04 1.87 1.64 1.59 1.68
0.00 0.00 0.00 0.00 0.01 0.01 0.02 0.13 0.17 0.18 0.23 0.31 0.37 0.46 0.60 0.75 1.00 1.31 1.79 2.03 2.11 2.11 2.01 2.11 2.27 2.23 2.35 2.35 2.27 2.35 2.60 2.72 2.75 2.72 2.63 2.51 2.50 2.50 2.58 2.67 2.52 2.33 2.21 2.20 2.08 2.04 1.93 1.92 1.92
0.00 0.00 0.00 0.00 0.01 0.02 0.04 0.11 0.22 0.22 0.32 0.35 0.42 0.40 0.54 0.74 1.05 1.36 1.78 2.03 2.02 2.07 2.07 2.07 2.28 2.26 2.42 2.55 2.43 2.49 2.56 2.66 2.79 2.93 3.03 3.16 3.18 3.14 3.08 2.96 2.79 2.61 2.49 2.44 2.34 2.28 2.21 2.08 1.93
0.00 0.00 0.00 0.01 0.01 0.03 0.08 0.13 0.23 0.28 0.35 0.44 0.53 0.52 0.68 0.77 0.99 1.38 1.74 1.99 2.24 2.16 2.19 2.10 2.13 2.31 2.40 2.55 2.67 2.89 2.91 2.89 3.12 3.40 3.55 3.74 3.81 3.63 3.55 3.42 3.22 3.02 2.81 2.65 2.46 2.32 2.23 2.07 1.88
0.00 0.00 0.01 0.03 0.05 0.06 0.10 0.21 0.33 0.40 0.39 0.50 0.64 0.70 0.97 1.13 1.19 1.36 1.68 2.00 2.20 2.22 2.19 2.22 2.41 2.48 2.60 2.93 3.36 3.77 4.09 4.25 4.32 4.48 4.50 4.41 4.26 4.12 3.98 3.85 3.61 3.35 3.10 2.85 2.63 2.37 2.21 2.02 1.83
0.00 0.01 0.02 0.05 0.10 0.13 0.19 0.40 0.47 0.44 0.43 0.54 0.72 0.83 1.04 1.22 1.37 1.30 1.35 1.53 1.81 2.05 2.22 2.30 2.60 2.94 3.28 3.75 4.30 4.71 5.05 5.27 5.19 5.00 4.85 4.62 4.40 4.19 3.86 3.65 3.58 3.35 3.00 2.75 2.55 2.32 2.13 1.94 1.77
0.01 0.01 0.02 0.04 0.09 0.20 0.23 0.46 0.57 0.53 0.59 0.64 0.70 0.75 0.88 0.91 1.01 1.15 1.19 1.29 1.54 1.78 2.07 2.37 2.66 3.18 3.92 4.60 5.15 5.61 5.80 5.77 5.63 5.37 4.99 4.58 4.25 3.93 3.60 3.31 3.06 2.84 2.56 2.32 2.17 2.06 1.96 1.87 1.74
0.01 0.00 0.01 0.04 0.07 0.16 0.20 0.43 0.67 0.68 0.70 0.77 0.88 0.83 0.80 0.79 0.80 0.91 1.01 1.13 1.33 1.54 1.86 2.25 2.70 3.31 3.94 4.60 5.17 5.62 5.81 5.71 5.44 5.00 4.49 3.98 3.51 3.15 2.88 2.59 2.32 2.09 1.90 1.72 1.56 1.52 1.63 1.70 1.69
0.00 0.01 0.03 0.06 0.10 0.22 0.19 0.35 0.73 0.92 0.94 1.03 1.03 1.06 1.02 0.91 0.88 0.87 0.88 0.94 1.08 1.34 1.66 2.05 2.47 2.99 3.50 3.92 4.44 4.75 4.92 4.86 4.52 4.04 3.46 3.02 2.69 2.40 2.16 1.92 1.71 1.53 1.36 1.23 1.17 1.15 1.21 1.31 1.38
0.00 0.02 0.09 0.14 0.18 0.23 0.20 0.39 0.86 1.13 1.11 1.17 1.12 1.15 1.16 1.04 0.94 0.87 0.85 0.83 0.93 1.16 1.49 1.73 1.99 2.37 2.69 3.05 3.44 3.64 3.65 3.49 3.26 2.99 2.66 2.31 1.99 1.71 1.51 1.33 1.18 1.06 0.97 0.93 0.89 0.90 0.97 1.00 1.05
0.01 0.02 0.11 0.23 0.26 0.30 0.39 0.71 1.11 1.16 1.05 1.05 1.06 1.01 0.97 0.90 0.87 0.90 0.93 0.93 1.01 1.07 1.24 1.43 1.57 1.75 1.89 2.02 2.21 2.25 2.22 2.13 2.09 1.96 1.75 1.52 1.28 1.03 0.89 0.81 0.74 0.70 0.69 0.67 0.65 0.67 0.72 0.77 0.78
0.01 0.03 0.06 0.10 0.16 0.31 0.63 1.05 1.34 1.25 1.17 1.07 0.96 0.80 0.84 0.80 0.73 0.80 0.85 0.94 1.00 1.01 1.01 1.03 1.03 1.06 1.08 1.10 1.20 1.25 1.25 1.22 1.19 1.10 0.99 0.89 0.80 0.70 0.62 0.57 0.54 0.51 0.52 0.51 0.48 0.45 0.45 0.51 0.58
0.02 0.04 0.05 0.10 0.27 0.42 0.67 1.06 1.45 1.59 1.53 1.45 1.18 0.88 0.86 0.80 0.72 0.69 0.68 0.72 0.77 0.78 0.76 0.70 0.71 0.71 0.65 0.62 0.63 0.67 0.71 0.69 0.66 0.64 0.61 0.57 0.53 0.48 0.43 0.37 0.33 0.31 0.31 0.33 0.35 0.35 0.32 0.33 0.37
0.04 0.05 0.06 0.11 0.19 0.38 0.76 1.23 1.38 1.62 1.63 1.50 1.24 1.01 0.99 0.90 0.81 0.76 0.74 0.66 0.63 0.64 0.65 0.60 0.58 0.55 0.52 0.50 0.50 0.46 0.44 0.42 0.38 0.37 0.36 0.33 0.31 0.28 0.27 0.24 0.22 0.20 0.21 0.23 0.26 0.29 0.30 0.31 0.31
0.07 0.07 0.07 0.17 0.19 0.25 0.65 1.38 1.57 1.72 1.72 1.62 1.57 1.38 1.19 1.07 0.97 0.89 0.84 0.71 0.63 0.58 0.58 0.56 0.51 0.46 0.44 0.41 0.38 0.34 0.30 0.29 0.27 0.26 0.24 0.21 0.20 0.19 0.19 0.20 0.19 0.16 0.17 0.20 0.23 0.24 0.24 0.27 0.29